Phnom Penh, Cambodia

6:43 PM +07 on August 19, 2017 (GMT +0700)
Pochentong International

Weather History for VDPP - February, 2013

Change the Weather History Date:

Monday, February 18, 2013

  Actual Average Record
Temperature  
Mean Temperature 84 °F -  
Max Temperature 96 °F 89 °F 96 °F (2005)
Min Temperature 73 °F 75 °F 69 °F (2001)
Cooling Degree Days 20    
Growing Degree Days 34 (Base 50)    
Moisture  
Dew Point 62 °F    
Average Humidity 46    
Maximum Humidity 69    
Minimum Humidity 28    
Precipitation  
Precipitation 0.00 in - - ()
Sea Level Pressure  
Sea Level Pressure 29.77 in    
Wind  
Wind Speed 7 mph ()    
Max Wind Speed 14 mph    
Max Gust Speed -    
Visibility 5.7 miles    
Events      
Averages and records for this station are not official NWS values.
T = Trace of Precipitation, MM = Missing Value Source: Averaged Metar Reports

Daily Weather History Graph

Daily Weather History Graph

Search for Another Location

Airport or City:

Trip Planner

Search our weather history database for the weather conditions in past years. The results will help you decide how hot, cold, wet, or windy it might be!

Date:

Astronomy

Feb. 18, 2013 Rise Set
Actual Time 6:20 AM +07 6:08 PM +07
Civil Twilight 5:59 AM +07 6:29 PM +07
Nautical Twilight 5:34 AM +07 6:54 PM +07
Astronomical Twilight 5:09 AM +07 7:19 PM +07
Moon 11:57 AM +07 (2/18) 12:06 AM +07 (2/18)
Length of Visible Light 12h 30m
Length of Day
11h 47m
First Quarter, 53% of the Moon is Illuminated
Feb 18
First Quarter
Feb 26
Full
Mar 5
Last Quarter
Mar 12
New
Mar 20
First Quarter

Hourly Weather History & Observations

Time (+07) Temp. Heat Index Dew Point Humidity Pressure Visibility Wind Dir Wind Speed Gust Speed Precip Events Conditions
12:00 AM 78.8 °F - 64.4 °F 61% 29.80 in 5.6 mi SSW 9.2 mph - N/A   Partly Cloudy
12:30 AM 78.8 °F - 64.4 °F 61% 29.80 in 5.6 mi SSW 8.1 mph - N/A   Partly Cloudy
1:00 AM 78.8 °F - 64.4 °F 61% 29.77 in 5.6 mi SSW 9.2 mph - N/A   Partly Cloudy
6:00 AM 75.2 °F - 64.4 °F 69% 29.80 in 5.6 mi SSW 5.8 mph - N/A   Unknown
6:30 AM 77.0 °F - 66.2 °F 69% 29.80 in 5.6 mi SW 4.6 mph - N/A   Unknown
7:00 AM - - - % 29.84 in 6 mi South 4.5 mph - -   Clear
7:00 AM 77.0 °F - 64.4 °F 65% 29.80 in 5.6 mi SSW 5.8 mph - N/A   Unknown
7:30 AM 78.8 °F - 66.2 °F 65% 29.83 in 5.6 mi SW 8.1 mph - N/A   Unknown
8:00 AM 80.6 °F 82.7 °F 66.2 °F 61% 29.83 in - SW 8.1 mph - N/A   Clear
8:30 AM 82.4 °F 83.9 °F 64.4 °F 54% 29.83 in - SSE 5.8 mph - N/A   Clear
9:00 AM 82.4 °F 83.4 °F 62.6 °F 51% 29.83 in - SSE 9.2 mph - N/A   Clear
9:30 AM 84.2 °F 84.4 °F 60.8 °F 45% 29.83 in - SE 10.4 mph - N/A   Clear
10:00 AM 87.8 °F 87.6 °F 60.8 °F 40% 29.83 in - SSE 10.4 mph - N/A   Clear
10:30 AM 86.0 °F 86.1 °F 60.8 °F 43% 29.83 in - South 10.4 mph - N/A   Clear
11:00 AM 86.0 °F 86.6 °F 62.6 °F 45% 29.83 in - South 6.9 mph - N/A   Clear
11:30 AM 87.8 °F 88.5 °F 62.6 °F 43% 29.80 in - SW 4.6 mph - N/A   Clear
12:00 PM 87.8 °F 88.5 °F 62.6 °F 43% 29.80 in - SSE 4.6 mph - N/A   Clear
12:30 PM 89.6 °F 89.5 °F 60.8 °F 38% 29.77 in - SSW 4.6 mph - N/A   Clear
1:00 PM 91.4 °F 91.4 °F 60.8 °F 36% 29.77 in - SW 5.8 mph - N/A   Clear
1:30 PM 93.2 °F 91.9 °F 57.2 °F 30% 29.74 in - WNW 5.8 mph - N/A   Clear
2:00 PM 93.2 °F 92.6 °F 59.0 °F 32% 29.74 in - SSE 4.6 mph - N/A   Clear
2:30 PM 93.2 °F 92.6 °F 59.0 °F 32% 29.71 in - ESE 5.8 mph - N/A   Clear
3:00 PM 96.8 °F 96.2 °F 59.0 °F 28% 29.68 in - NNW 2.3 mph - N/A   Clear
4:00 PM 93.2 °F 92.6 °F 59.0 °F 32% 29.68 in 6.2 mi NW 2.3 mph - N/A   Partly Cloudy
4:30 PM 93.2 °F 93.3 °F 60.8 °F 34% 29.68 in 6.2 mi NNE 5.8 mph - N/A   Partly Cloudy
5:00 PM 93.2 °F 93.3 °F 60.8 °F 34% 29.68 in 6.2 mi NNE 8.1 mph - N/A   Partly Cloudy
5:30 PM 93.2 °F 93.3 °F 60.8 °F 34% 29.71 in - NE 6.9 mph - N/A   Clear
6:00 PM 91.4 °F 90.7 °F 59.0 °F 34% 29.71 in 5.6 mi NE 5.8 mph - N/A   Unknown
6:30 PM 89.6 °F 88.9 °F 59.0 °F 36% 29.71 in 5.6 mi NE 3.5 mph - N/A   Unknown
7:00 PM 89.6 °F 88.9 °F 59.0 °F 36% 29.71 in 5.6 mi East 2.3 mph - N/A   Unknown
7:30 PM 87.8 °F 88.5 °F 62.6 °F 43% 29.74 in 5.6 mi South 4.6 mph - N/A   Unknown
8:00 PM 87.8 °F 88.5 °F 62.6 °F 43% 29.74 in 5.6 mi South 8.1 mph - N/A   Unknown
8:30 PM 86.0 °F 87.3 °F 64.4 °F 48% 29.74 in 5.6 mi South 8.1 mph - N/A   Unknown
9:00 PM 87.8 °F 89.4 °F 64.4 °F 46% 29.74 in 5.6 mi South 8.1 mph - N/A   Unknown
9:30 PM 84.2 °F 85.6 °F 64.4 °F 51% 29.77 in 5.6 mi South 9.2 mph - N/A   Unknown
10:00 PM 86.0 °F 88.2 °F 66.2 °F 51% 29.77 in 5.6 mi South 12.7 mph - N/A   Unknown
10:30 PM 84.2 °F 85.6 °F 64.4 °F 51% 29.77 in 5.6 mi South 13.8 mph - N/A   Unknown
11:00 PM 82.4 °F 83.9 °F 64.4 °F 54% 29.77 in 5.6 mi SSW 12.7 mph - N/A   Unknown
11:30 PM 82.4 °F 83.9 °F 64.4 °F 54% 29.77 in 5.6 mi SSW 11.5 mph - N/A   Unknown